BEIDOU 13

Last updated on Wed May 15 2019 03:07:46 GMT+0000 (Coordinated Universal Time)

1 38251U 12018B 19134.50932775 -.00000100 00000-0 10000-3 0 9993 2 38251 56.5471 30.3119 0025365 234.7364 267.0979 1.86233562 48048

Satellite not in orbit

BEIDOU 13